Regional Weather Roundup
Issued by NWS

Home | Current Version | Previous Version | Graphics & Text | Print | Product List | Glossary On
Versions: 1 2 3 4 5 6 7 8 9 10 11 12 13 14 15 16 17 18 19 20 21 22 23 24 25 26 27 28 29 30 31 32 33 34 35 36 37 38 39 40 41 42 43 44 45 46 47 48 49 50
000
ASUS45 KPSR 200510
RWRAZ

ARIZONA REGIONAL HOURLY WEATHER ROUNDUP
NATIONAL WEATHER SERVICE PHOENIX AZ
1000 PM MST SAT APR 19 2014

NOTE: FAIR INDICATES FEW OR NO CLOUDS BELOW 12,000 FEET WITH NO
SIGNIFICANT WEATHER AND/OR OBSTRUCTIONS TO VISIBILITY.

AZZ001>003-036-200600-
NORTHWEST ARIZONA

CITY           SKY/WX    TMP DP  RH WIND       PRES   REMARKS
BULLHEAD CITY  CLEAR     79  39  24 CALM      29.90R
KINGMAN        MOCLDY    67  39  35 W5        30.04R
$$

AZZ004>008-015-016-018-200600-
NORTH CENTRAL ARIZONA

CITY           SKY/WX    TMP DP  RH WIND       PRES   REMARKS
GRAND CANYON   CLEAR     37  35  92 CALM      30.19R
WILLIAMS       CLEAR     41  32  70 SE7       30.26R
PRESCOTT       CLEAR     53  34  48 SW5       30.13R
FLAGSTAFF      PTCLDY    37  30  75 CALM      30.20S
PAYSON         PTCLDY    55  39  54 E3        30.16S
PAGE           PTCLDY    63  35  35 CALM      30.04S
$$

AZZ009>014-017-200600-
NORTHEAST ARIZONA

CITY           SKY/WX    TMP DP  RH WIND       PRES   REMARKS
WINSLOW        CLOUDY    53  41  63 CALM      30.12S
SAINT JOHNS    MOCLDY    47  39  74 CALM      30.16R
WINDOW ROCK    PTCLDY    44  39  82 CALM      30.19R
SHOW LOW       CLOUDY    45  37  76 S8        30.21S
$$

AZZ023-200600-
GREATER PHOENIX AREA

CITY           SKY/WX    TMP DP  RH WIND       PRES   REMARKS
PHOENIX        PTCLDY    81  38  21 CALM      29.93R
BUCKEYE          N/A     70  36  28 NW6       29.95R
LUKE AFB       NOT AVBL
DEER VALLEY    CLEAR     73  34  23 CALM      29.95R HAZE
SCOTTSDALE     PTCLDY    77  39  25 CALM      29.97R
MESA-GATEWAY   MOCLDY    72  39  30 SW6       29.98R
$$

AZZ027-028-200600-
SOUTHWEST MARICOPA COUNTY AND PINAL COUNTY

CITY           SKY/WX    TMP DP  RH WIND       PRES   REMARKS
CASA GRANDE    PTCLDY    72  39  30 S6        29.98R
GILA BEND      CLEAR     73  39  29 S5        29.96R
$$

AZZ503-504-507>509-200600-
SOUTHEAST ARIZONA

CITY           SKY/WX    TMP DP  RH WIND       PRES   REMARKS
TUCSON         CLEAR     67  46  47 SE8       30.07R
DAVIS-MONTHAN  CLEAR     65  45  48 SE8       30.06R
NOGALES        PTCLDY    57  41  55 NE5       30.09S
SIERRA VISTA   MOCLDY    56  42  59 MISG      30.13R
DOUGLAS        MOCLDY    51  46  83 S5        30.12R
SAFFORD        CLOUDY    60  41  49 CALM      30.06R
$$

AZZ020-021-025-026-031-200600-
SOUTHWEST ARIZONA

CITY           SKY/WX    TMP DP  RH WIND       PRES   REMARKS
YUMA           CLEAR     76  47  35 S8        29.92R
$$

CAZ031-033-041-043-047-048-061-200600-
SOUTHERN CALIFORNIA

CITY           SKY/WX    TMP DP  RH WIND       PRES   REMARKS
DOWNTOWN L.A.  CLEAR     63  53  70 CALM      30.02R
L.A. AIRPORT   CLEAR     61  55  81 S6        30.03R
SAN DIEGO      PTCLDY    63  55  75 W3        30.08R
BURBANK        CLEAR     63  52  67 E8        30.01R
ONTARIO        PTCLDY    63  51  65 W6        30.04R
RIVERSIDE      CLEAR     64  53  67 VRB3      30.04R
PALM SPRINGS   CLEAR     81  46  29 NW7       29.93R
EL CENTRO NAS  CLEAR     75  49  39 S8        29.89R
IMPERIAL       CLEAR     78  44  29 S7        29.89R
BLYTHE         PTCLDY    80  41  24 SW5       29.90R
NEEDLES        CLEAR     81  35  19 SW8       29.90R
$$

NVZ020-UTZ003-200600-
SOUTHERN NEVADA-UTAH

CITY           SKY/WX    TMP DP  RH WIND       PRES   REMARKS
LAS VEGAS      CLEAR     78  34  20 S12       29.89R
SALT LAKE CITY PTCLDY    57  38  48 SE8       29.99S
$$

NMZ009-TXZ055-200600-
NEW MEXICO-WEST TEXAS

CITY           SKY/WX    TMP DP  RH WIND       PRES   REMARKS
ALBUQUERQUE    CLOUDY    52  45  77 SW8       30.12S
EL PASO        PTCLDY    57  49  74 N7        30.10S
$$


........................KEY........................
SKY/WX - SKY CONDITION/WEATHER
TMP    - TEMPERATURE IN FAHRENHEIT
DP     - DEW POINT IN FAHRENHEIT
RH     - RELATIVE HUMIDITY IN PERCENT
WIND   - DIRECTION AND SPEED IN MILES PER HOUR (MPH)
VRB    - VARIABLE WIND DIRECTION
PRES   - MEAN SEA LEVEL PRESSURE IN INCHES OF MERCURY
         F - FALLING PRESSURE   R - RISING PRESSURE
         S - STEADY PRESSURE
VSB    - VISIBILITY IN MILES
HX     - HEAT INDEX IN FAHRENHEIT
WCI    - WIND CHILL INDEX IN FAHRENHEIT
TC     - TEMPERATURE IN CELSIUS WHICH IS ALSO KNOWN AS
         TEMPERATURE IN CENTIGRADE
AFB    - AIR FORCE BASE
         LUKE AFB IS LUKE AIR FORCE BASE
         DAVIS-MONTHAN IS DAVIS-MONTHAN AIR FORCE BASE
NAS    - NAVAL AIR STATION
         EL CENTRO NAS IS EL CENTRO NAVAL AIR STATION
N/A    - NOT AVAILABLE



USA.gov is the U.S. government's official web portal to all federal, state and local government web resources and services.